Time,TemperatureF,DewpointF,PressureIn,WindDirection,WindDirectionDegrees,WindSpeedMPH,WindSpeedGustMPH,Humidity,HourlyPrecipIn,Conditions,Clouds,dailyrainin,SoftwareType,DateUTC
2013-08-01 00:10:00,62.2,60.4,29.89,South,180,0.0,-999.0,94,-99.99,,,0.00,Acu-Link.com,2013-08-01 04:10:00,
2013-08-01 00:25:00,61.9,60.2,29.89,South,180,0.0,-999.0,94,-99.99,,,0.00,Acu-Link.com,2013-08-01 04:25:00,
2013-08-01 00:40:00,61.9,61.0,29.89,South,180,0.0,-999.0,97,-99.99,,,0.00,Acu-Link.com,2013-08-01 04:40:00,
2013-08-01 00:55:00,61.5,60.6,29.89,West,270,0.0,-999.0,97,-99.99,,,0.00,Acu-Link.com,2013-08-01 04:55:00,
2013-08-01 01:10:00,61.2,60.3,29.89,West,270,0.0,-999.0,97,-99.99,,,0.00,Acu-Link.com,2013-08-01 05:10:00,
2013-08-01 01:26:00,61.0,60.1,29.89,West,270,0.0,-999.0,97,-99.99,,,0.00,Acu-Link.com,2013-08-01 05:26:00,
2013-08-01 02:27:00,60.3,60.0,29.88,West,270,0.0,-999.0,99,-99.99,,,0.00,Acu-Link.com,2013-08-01 06:27:00,
2013-08-01 02:42:00,59.9,59.3,29.87,West,270,0.0,-999.0,98,-99.99,,,0.00,Acu-Link.com,2013-08-01 06:42:00,
2013-08-01 02:57:00,59.9,59.6,29.87,West,270,0.0,-999.0,99,-99.99,,,0.00,Acu-Link.com,2013-08-01 06:57:00,
2013-08-01 03:12:00,59.5,59.2,29.87,West,270,0.0,-999.0,99,-99.99,,,0.00,Acu-Link.com,2013-08-01 07:12:00,
2013-08-01 03:27:00,59.5,59.2,29.86,West,270,0.0,-999.0,99,-99.99,,,0.00,Acu-Link.com,2013-08-01 07:27:00,
2013-08-01 03:43:00,59.5,59.2,29.87,West,270,0.0,-999.0,99,-99.99,,,0.00,Acu-Link.com,2013-08-01 07:43:00,
2013-08-01 03:58:00,59.5,59.2,29.86,West,270,0.0,-999.0,99,-99.99,,,0.00,Acu-Link.com,2013-08-01 07:58:00,
2013-08-01 04:13:00,59.4,59.1,29.85,West,270,0.0,-999.0,99,-99.99,,,0.00,Acu-Link.com,2013-08-01 08:13:00,
2013-08-01 04:44:00,59.5,59.2,29.85,West,270,0.0,-999.0,99,-99.99,,,0.00,Acu-Link.com,2013-08-01 08:44:00,
2013-08-01 04:59:00,59.5,59.2,29.86,West,270,0.0,-999.0,99,-99.99,,,0.00,Acu-Link.com,2013-08-01 08:59:00,
2013-08-01 06:00:00,58.6,58.3,29.86,West,270,0.0,-999.0,99,-99.99,,,0.00,Acu-Link.com,2013-08-01 10:00:00,
2013-08-01 06:30:00,59.4,59.1,29.86,West,270,0.0,-999.0,99,-99.99,,,0.00,Acu-Link.com,2013-08-01 10:30:00,
2013-08-01 07:01:00,61.2,60.9,29.87,SSW,202,0.0,-999.0,99,-99.99,,,0.00,Acu-Link.com,2013-08-01 11:01:00,
2013-08-01 07:16:00,63.7,62.2,29.87,SSW,202,0.0,-999.0,95,-99.99,,,0.00,Acu-Link.com,2013-08-01 11:16:00,
2013-08-01 08:01:00,71.8,65.6,29.86,SSE,157,1.7,-999.0,81,-99.99,,,0.00,Acu-Link.com,2013-08-01 12:01:00,
2013-08-01 08:17:00,74.1,66.0,29.86,South,180,2.2,-999.0,76,-99.99,,,0.00,Acu-Link.com,2013-08-01 12:17:00,
2013-08-01 08:32:00,76.5,66.8,29.86,WNW,292,1.1,-999.0,72,-99.99,,,0.00,Acu-Link.com,2013-08-01 12:32:00,
2013-08-01 09:02:00,74.5,66.0,29.85,West,270,1.1,-999.0,75,-99.99,,,0.00,Acu-Link.com,2013-08-01 13:02:00,
2013-08-01 09:17:00,73.9,65.5,29.84,South,180,2.2,-999.0,75,-99.99,,,0.00,Acu-Link.com,2013-08-01 13:17:00,
2013-08-01 09:33:00,75.4,66.1,29.84,West,270,2.2,-999.0,73,-99.99,,,0.00,Acu-Link.com,2013-08-01 13:33:00,
2013-08-01 09:48:00,79.0,67.9,29.84,SSE,157,2.2,-999.0,69,-99.99,,,0.00,Acu-Link.com,2013-08-01 13:48:00,
2013-08-01 10:03:00,77.5,66.1,29.83,SSW,202,0.0,-999.0,68,-99.99,,,0.00,Acu-Link.com,2013-08-01 14:03:00,
2013-08-01 10:18:00,77.7,65.0,29.83,NE,45,3.2,-999.0,65,-99.99,,,0.00,Acu-Link.com,2013-08-01 14:18:00,
2013-08-01 10:49:00,80.1,64.9,29.81,SSW,202,1.7,-999.0,60,-99.99,,,0.00,Acu-Link.com,2013-08-01 14:49:00,
2013-08-01 11:19:00,82.4,63.0,29.80,SW,225,2.7,-999.0,52,-99.99,,,0.00,Acu-Link.com,2013-08-01 15:19:00,
2013-08-01 11:34:00,82.4,64.1,29.80,ENE,67,3.7,-999.0,54,-99.99,,,0.00,Acu-Link.com,2013-08-01 15:34:00,
2013-08-01 11:50:00,82.6,64.8,29.79,SW,225,5.3,-999.0,55,-99.99,,,0.00,Acu-Link.com,2013-08-01 15:50:00,
2013-08-01 12:20:00,81.7,63.4,29.79,East,90,3.2,-999.0,54,-99.99,,,0.00,Acu-Link.com,2013-08-01 16:20:00,
2013-08-01 12:51:00,82.9,62.9,29.78,ENE,67,2.7,-999.0,51,-99.99,,,0.00,Acu-Link.com,2013-08-01 16:51:00,
2013-08-01 13:36:00,82.0,64.7,29.76,SW,225,6.8,-999.0,56,-99.99,,,0.00,Acu-Link.com,2013-08-01 17:36:00,
2013-08-01 13:52:00,83.7,64.7,29.76,South,180,4.2,-999.0,53,-99.99,,,0.00,Acu-Link.com,2013-08-01 17:52:00,
2013-08-01 14:07:00,81.3,64.6,29.75,West,270,2.7,-999.0,57,-99.99,,,0.00,Acu-Link.com,2013-08-01 18:07:00,
2013-08-01 14:22:00,79.2,64.1,29.75,WSW,247,2.7,-999.0,60,-99.99,,,0.00,Acu-Link.com,2013-08-01 18:22:00,
2013-08-01 14:37:00,81.9,65.1,29.75,WNW,292,2.7,-999.0,57,-99.99,,,0.00,Acu-Link.com,2013-08-01 18:37:00,
2013-08-01 15:08:00,80.1,64.5,29.74,West,270,3.2,-999.0,59,-99.99,,,0.00,Acu-Link.com,2013-08-01 19:08:00,
2013-08-01 15:38:00,78.6,64.0,29.73,West,270,2.2,-999.0,61,-99.99,,,0.00,Acu-Link.com,2013-08-01 19:38:00,
2013-08-01 15:53:00,78.6,66.7,29.73,ESE,112,1.7,-999.0,67,-99.99,,,0.00,Acu-Link.com,2013-08-01 19:53:00,
2013-08-01 17:09:00,73.0,64.2,29.75,WSW,247,3.2,-999.0,74,-99.99,,,0.00,Acu-Link.com,2013-08-01 21:09:00,
2013-08-01 17:24:00,72.7,65.1,29.74,SSE,157,4.2,-999.0,77,-99.99,,,0.00,Acu-Link.com,2013-08-01 21:24:00,
2013-08-01 17:40:00,70.3,64.2,29.75,WSW,247,1.7,-999.0,81,-99.99,,,0.00,Acu-Link.com,2013-08-01 21:40:00,
2013-08-01 18:10:00,69.4,64.7,29.75,West,270,2.7,-999.0,85,-99.99,,,0.00,Acu-Link.com,2013-08-01 22:10:00,
2013-08-01 18:25:00,68.4,64.4,29.76,SE,135,2.7,-999.0,87,-99.99,,,0.00,Acu-Link.com,2013-08-01 22:25:00,
2013-08-01 18:41:00,68.0,64.6,29.76,SE,135,1.7,-999.0,89,-99.99,,,0.00,Acu-Link.com,2013-08-01 22:41:00,
2013-08-01 18:56:00,67.8,64.8,29.75,SSE,157,0.0,-999.0,90,-99.99,,,0.00,Acu-Link.com,2013-08-01 22:56:00,
2013-08-01 19:26:00,67.8,65.1,29.75,ESE,112,0.0,-999.0,91,-99.99,,,0.00,Acu-Link.com,2013-08-01 23:26:00,
2013-08-01 19:57:00,67.3,64.9,29.75,South,180,1.7,-999.0,92,-99.99,,,0.00,Acu-Link.com,2013-08-01 23:57:00,
2013-08-01 20:27:00,67.1,64.7,29.75,ESE,112,1.1,-999.0,92,-99.99,,,0.00,Acu-Link.com,2013-08-02 00:27:00,
2013-08-01 21:13:00,66.7,64.3,29.76,SE,135,0.0,-999.0,92,-99.99,,,0.00,Acu-Link.com,2013-08-02 01:13:00,
2013-08-01 21:28:00,66.4,64.6,29.75,ESE,112,0.0,-999.0,94,-99.99,,,0.01,Acu-Link.com,2013-08-02 01:28:00,
2013-08-01 21:43:00,66.4,64.9,29.75,SSW,202,0.0,-999.0,95,-99.99,,,0.01,Acu-Link.com,2013-08-02 01:43:00,
2013-08-01 21:58:00,66.0,64.5,29.75,SSW,202,0.0,-999.0,95,-99.99,,,0.01,Acu-Link.com,2013-08-02 01:58:00,
2013-08-01 22:13:00,66.0,64.2,29.75,South,180,0.0,-999.0,94,-99.99,,,0.01,Acu-Link.com,2013-08-02 02:13:00,
2013-08-01 22:29:00,65.7,64.2,29.75,SE,135,0.0,-999.0,95,-99.99,,,0.02,Acu-Link.com,2013-08-02 02:29:00,
2013-08-01 22:44:00,65.5,64.3,29.74,South,180,0.0,-999.0,96,-99.99,,,0.04,Acu-Link.com,2013-08-02 02:44:00,
2013-08-01 22:59:00,65.3,64.1,29.74,South,180,0.0,-999.0,96,-99.99,,,0.06,Acu-Link.com,2013-08-02 02:59:00,
2013-08-01 23:14:00,64.9,64.0,29.73,SE,135,1.7,-999.0,97,-99.99,,,0.07,Acu-Link.com,2013-08-02 03:14:00,
2013-08-01 23:29:00,64.9,64.0,29.73,SE,135,0.0,-999.0,97,-99.99,,,0.08,Acu-Link.com,2013-08-02 03:29:00,
2013-08-01 23:45:00,64.9,64.0,29.72,ESE,112,0.0,-999.0,97,-99.99,,,0.08,Acu-Link.com,2013-08-02 03:45:00,